Погода в Раздольном

Украина / Херсонская область     46°09′30″N   33°14′01″E
темп.,
°C
ветер,
м/с
пор.,
м/с
влажн.,
%
обл.,
%
осадки,
мм/ч
давл.,
гПа
погр.,
м
15 мая, сб
сб1500:00+13юз488996 0.0 1012133
03:00+13юз47915 0.0 1013122
06:00+13юз36880 0.0 1013101
09:00+19юз566110 0.0 1014490
12:00+22юз55515 0.0 1014915
15:00+23юз44425 0.0 10131061
18:00+22зюз3241100 0.0 1013719
21:00+16юз11673 0.0 101311
16 мая, вс
вс1600:00+15св2270100 0.0 101218
03:00+14всв3477100 0.0 101247
06:00+14св3675100 0.0 101193
09:00+20св685673 0.0 1011480
12:00+25всв564023 0.0 10101529
15:00+26всв5533100 0.0 10081737
18:00+25ссв4744100 0.0 1006384
21:00+17вюв1181100 1.3 100515
17 мая, пн
пн1700:00+16ссв41091100 1.8 1004212
03:00+16ссв3596100 2.1 1002114
06:00+15зсз349742 0.1 1002114
09:00+18зюз338885 0.2 1003392
12:00+18зюз898474 0.1 1005665
15:00+20юз8968100 0.4 10061061
18:00+18юз68671 0.0 1007480
21:00+14ююз49935 0.0 1008211
18 мая, вт
вт1800:00+14ю49953 0.0 1009214
03:00+14ю511943 0.0 1008260
06:00+15ююз599384 0.0 1008259
09:00+18ююз7981100 0.1 1009381
12:00+20ююз9136897 0.1 1009895
15:00+19юз911715 0.1 1009696
18:00+19зюз711680 0.0 1010869
21:00+15юз47870 0.0 1012128
19 мая, ср
ср1900:00+14зюз34885 0.0 101344
03:00+13ююз2286100 0.0 101311
06:00+14в118772 0.0 101310
09:00+19вюв2265100 0.0 1013472
12:00+22в445368 0.1 10121353
15:00+20в6860100 0.1 1010461
18:00+20вюв9126789 0.0 1008541
21:00+16в498691 0.0 1008233